Regional Weather Roundup
Issued by NWS Mobile, AL

Home | Current Version | Previous Version | Text Only | Print | Product List | Glossary On
Versions: 1 2 3 4 5 6 7 8 9 10 11 12 13 14 15 16 17 18 19 20 21 22 23 24 25 26 27 28 29 30 31 32 33 34 35 36 37 38 39 40 41 42 43 44 45 46 47 48 49 50
000
ASUS44 KMOB 020510
RWRMOB
REGIONAL WEATHER ROUNDUP
NATIONAL WEATHER SERVICE MOBILE AL
1100 PM CST SUN MAR 01 2015

NOTE: "FAIR" INDICATES FEW OR NO CLOUDS BELOW 12,000 FEET WITH NO
      SIGNIFICANT WEATHER AND/OR OBSTRUCTIONS TO VISIBILITY.

  * THESE STATIONS ARE PART OF THE UNIVERSITY OF SOUTH ALABAMA
    MESONET AND ARE NOT UNDER NWS OR FAA QUALITY CONTROL.

ALZ061>064-020600-
COASTAL ALABAMA

CITY           SKY/WX    TMP DP  RH WIND       PRES   REMARKS
MOBILE REG APT CLOUDY    54  54 100 NE8       30.38R FOG
BROOKLEY FIELD CLOUDY    57  56  96 N6        30.39R FOG
USA CAMPUS*      N/A     57  57 100 NE2       30.38R
DOG RIVER*     NOT AVBL


CITY           SKY/WX    TMP DP  RH WIND       PRES   REMARKS
MOUNT VERNON*    N/A     55  55 100 CALM      30.38S
SARALAND*      NOT AVBL
BAY MINETTE*   NOT AVBL
LOXLEY*          N/A     55  55 100 E7        30.37R
ROBERTSDALE*     N/A     55  55 100 CALM      30.37R
FAIRHOPE*        N/A     55  55 100 NE6       30.36R
ELBERTA*         N/A     55  55 100 NE6       30.36R
FOLEY*         NOT AVBL
GRAND BAY*       N/A     57  57 100 N5        30.35R
DAUPHIN ISLND* NOT AVBL
BON SCOUR NWR* NOT AVBL
GULF SHORES    CLOUDY    56  56 100 NE6       30.36S FOG

$$

ALZ051>060-020600-
INTERIOR SOUTHWEST AND SOUTH CENTRAL ALABAMA

CITY           SKY/WX    TMP DP  RH WIND       PRES   REMARKS
GREENVILLE     LGT RAIN  51  50  96 S12       30.32F FOG
EVERGREEN      CLOUDY    54  53  97 SE3       30.38R
CASTLEBERRY*   NOT AVBL
ATMORE*          N/A     54  54 100 E5        30.39R
DIXIE*           N/A     52  52 100 CALM      30.35F
ANDALUSIA/OPP  CLOUDY    55  51  86 CALM      30.39R
ANDALUSIA*       N/A     52  52 100 E2        30.37S
FLORALA APT    LGT RAIN  53  51  93 CALM      30.39S FOG
FLORALA*         N/A     52  52 100 CALM      30.35S

$$

FLZ001>006-020600-
WESTERN FLORIDA PANHANDLE

CITY           SKY/WX    TMP DP  RH WIND       PRES   REMARKS
PENSACOLA      CLOUDY    55  54  96 VRB5      30.37R
NAS PENSACOLA  CLOUDY    56  55  97 NE7       30.37R FOG
MILTON           N/A     54  53  97 NE3       30.38R
WHTNG S FIELD  CLOUDY    57  53  86 NE3       30.38R FOG


CITY           SKY/WX    TMP DP  RH WIND       PRES   REMARKS
WALNUT HILL*   NOT AVBL
JAY*             N/A     54  52  94 E6        30.38S
DUKE FIELD     CLOUDY    53  52  97 CALM      30.37S
CRESTVIEW      CLOUDY    53  53 100 CALM      30.40S FOG
VALPARAISO     CLOUDY    56  52  87 NE5       30.37R FOG
DESTIN         CLOUDY    55  53  93 NE8       30.38S

$$

MSZ076-079-020600-
INTERIOR SOUTHEAST MISSISSIPPI

CITY           SKY/WX    TMP DP  RH WIND       PRES   REMARKS
LEAKESVILLE*     N/A    N/A N/A N/A CALM      30.36F
AGRICOLA*      NOT AVBL

$$

MARINE OBSERVATIONS

STATION/POSITION TIME  TEMP    WIND        PRES    WAVE
                       AIR SEA DIR/SP/G            HT/PER
                 (UTC) (F)     (DEG/KT/KT) (MB)    (FT/S)
PASCAGOULA       0500   57      30/  8/ 11 1027.7R
PETIT BOIS ISLND 0500   57      50/ 11/ 13 1027.8R
GRAND BAY        0400   56      60/  7     1028.0S
KATRINA CUT      0400   54      60/ 13     1028.1R
CEDAR POINT      0400   52      40/  9     1028.1R
E DAUPHIN ISLAND 0354   55      30/  7/  8 1027.6R
MIDDLE BAY LIGHT 0400   47      20/  9     1027.8R
USCG MOBILE BAY  0500   56 52   40/  5/  6 1027.5R
STATE DOCKS      0400   56 48              1028.1R
MEAHER PARK      0400   57      30/  3     1028.8R
WEEKS BAY        0400   57                   N/A
FORT MORGAN      0500   55      80/ 12/ 12 1027.2S
12 S ORANGE BCH  0500   59 63   60/ 16/ 17 1027.0R   3/ 5
PENSACOLA BAY    0400   57 54   40/  3/  6 1028.6R
64 S DAUPHIN ISL 0408   69 71  110/ 14/ 16 1026.5    4/ 7
67 S FORT MORGAN 0300   69     120/ 12       N/A

$$

SELECTED LOCATIONS ACROSS THE REGION

CITY           SKY/WX    TMP DP  RH WIND       PRES   REMARKS
NEW ORLEANS    CLOUDY    58  57  97 E13G22    30.29S FOG
GULFPORT       LGT RAIN  59  58  96 NE9       30.34S FOG
PASCAGOULA AP  CLOUDY    57  57 100 NE7       30.36R FOG
PASCAGOULA*    NOT AVBL
HATTIESBURG    LGT RAIN  60  59  96 S16       30.29F
LAUREL         CLOUDY    57  55  94 CALM      30.31F
MERIDIAN       CLOUDY    54  54 100 W3        30.32R
JACKSON        CLOUDY    57  56  96 CALM      30.31S
MONTGOMERY     CLOUDY    52  49  89 CALM      30.34R
TROY           CLOUDY    50  49  96 S7        30.38F FOG
KINSTON*       NOT AVBL
GENEVA*          N/A     52  50  93 CALM      30.41F
ASHFORD*         N/A     52  52 100 E2        30.37S
DOTHAN         CLOUDY    50  49  96 E3        30.42S FOG
PANAMA CITY    CLOUDY    55  52  89 NE5       30.36F

$$



USA.gov is the U.S. government's official web portal to all federal, state and local government web resources and services.